Miscellaneous Local Product
Issued by NWS North Platte, NE

Home | Current Version | Previous Version | Text Only | Print | Product List | Glossary On
Versions: 1 2 3 4 5 6 7 8 9 10 11 12 13 14 15 16 17 18 19 20 21 22 23 24 25 26 27 28 29 30 31 32 33 34 35 36 37 38 39 40 41 42 43 44 45 46 47 48 49 50
000
AXUS43 KLBF 211610
MISLBF


WESTERN AND NORTH CENTRAL NEBRASKA HOURLY WEATHER ROUNDUP
NATIONAL WEATHER SERVICE NORTH PLATTE NE
1100 AM CDT THU MAY 21 2015

***STATIONS NOT REPORTING VARIABLES SUCH AS SKY/WEATHER OR
PRESSURE ARE PROVIDED BY THE NEBRASKA DEPARTMENT OF
ROADS...RAWS...AND APRS NETWORKS...AND ARE NOT UNDER
NATIONAL WEATHER SERVICE QUALITY CONTROL***

...OBSERVATIONS IN AND NEAR THE EASTERN PANHANDLE OF NEBRASKA...

CITY           SKY/WX    TMP DP  RH WIND       PRES   REMARKS
PINE RIDGE     SUNNY     52  36  54 VRB3      30.26F
CHADRON        MOSUNNY   51  38  60 SE5       30.25F
ALLIANCE       CLOUDY    50  39  66 S9        30.25F
SIDNEY         CLOUDY    46  39  76 S10       30.26F
WHITECLAY        N/A     49  33  55 S3          N/A
BIG SPRINGS      N/A     49  42  78 S8          N/A
$$

...OBSERVATIONS IN NORTH CENTRAL NEBRASKA...

CITY           SKY/WX    TMP DP  RH WIND       PRES   REMARKS
VALENTINE      SUNNY     57  33  40 W10       30.29S
THEDFORD       SUNNY     54  33  45 CALM      30.29F
AINSWORTH      SUNNY     56  35  45 NW5       30.29S
O`NEILL        SUNNY     59  42  53 NW12      30.28S
ORD            SUNNY     57  42  57 VRB6      30.28F
BROKEN BOW     SUNNY     57  37  47 CALM      30.29F
BROWNLEE         N/A     58  25  28 CALM        N/A
BREWSTER         N/A     58  34  40 CALM        N/A
ROSE             N/A     59  36  43 CALM        N/A
NEWPORT          N/A     58  38  47 NW7         N/A
COMSTOCK         N/A     61  37  40 N6          N/A
$$

...OBSERVATIONS IN SOUTHWEST NEBRASKA AND FAR NORTHEAST COLORADO...

CITY           SKY/WX    TMP DP  RH WIND       PRES   REMARKS
WRAY           CLOUDY    54  39  56 S10       30.29S
IMPERIAL       CLOUDY    49  38  65 S6        30.30S
OGALLALA       CLOUDY    51  40  66 S5        30.28F
NORTH PLATTE   SUNNY     53  37  54 VRB3      30.30F
MCCOOK         MOSUNNY   54  36  50 CALM      30.31S
LEXINGTON      SUNNY     54  42  64 W5        30.31S
PAXTON           N/A     51  43  73 CALM        N/A
GOTHENBURG       N/A     55  36  49 CALM        N/A
CALLAWAY         N/A     54  42  65 SW3         N/A
$$

...NORTH PLATTE AREA...

CITY           SKY/WX    TMP DP  RH WIND       PRES   REMARKS
AIRPORT        SUNNY     53  37  54 VRB3      30.30F
$$

...SOME WEATHER OBSERVATIONS FROM AROUND THE REGION...

CITY           SKY/WX    TMP DP  RH WIND       PRES   REMARKS
DENVER         CLOUDY    48  40  73 CALM      30.20F
LARAMIE        SUNNY     47  37  68 S6        30.17F
CHEYENNE       CLOUDY    39  38  96 S12       30.21S WCI  32
SCOTTSBLUFF    CLOUDY    48  39  71 VRB7      30.24F
RAPID CITY     SUNNY     56  30  37 S12       30.25F
PIERRE         SUNNY     60  37  42 W8        30.24F
WINNER         FAIR      60  36  40 NW13      30.27F
SIOUX FALLS    MOSUNNY   65  37  35 NW15G23   30.18S
OMAHA          MOSUNNY   61  43  51 NW8       30.24F
GRAND ISLAND   SUNNY     58  40  51 NW9       30.30F
KANSAS CITY    MOSUNNY   57  45  64 NE10      30.28S
WICHITA        PTSUNNY   56  42  59 N13       30.30F
HAYS           SUNNY     54  34  47 SE3       30.32F
LIBERAL        CLOUDY    52  39  62 E6        30.33S
GOODLAND       CLOUDY    49  38  65 S6        30.29F
$$



USA.gov is the U.S. government's official web portal to all federal, state and local government web resources and services.